{"data":{"norad_id":55287,"epoch":"2026-05-25T02:40:03.314208Z","epoch_age_seconds":55595,"freshness":"FRESH","line1":"1 55287U 23010U   26145.11114947  .00000337  00000+0  36023-4 0  9999","line2":"2 55287  69.9986 171.9164 0003958 264.4960  95.5748 14.98333007185203","mean_motion":14.98333007,"eccentricity":0.0003958,"inclination_deg":69.9986,"raan_deg":171.9164,"arg_perigee_deg":264.496,"mean_anomaly_deg":95.5748,"bstar":3.6023e-5,"rev_number":18520,"period_min":96.106806248846,"perigee_km":569.29570939478,"apogee_km":574.79747472625,"semimajor_km":6950.1835920605,"source":"CELESTRAK","updated_at":"2026-05-25T13:38:17.734255Z"}}